Location: Prairie Dale
(45.6972°N, 104.5033°W)
Time: 09:58:07
(UTC+00:00)

ISS - Visible Passes

Search period start: 18 January 2022 00:00
Search period end: 28 January 2022 00:00
Orbit: 413 x 422 km, 51.6° (Epoch: 18 January)

Date Brightness Start Highest point End Pass type
(mag) Time Alt. Az. Time Alt. Az. Time Alt. Az.
18 Jan -2.1 01:46:02 10° SSW 01:47:55 25° S 01:47:55 25° S visible
19 Jan -2.2 00:58:41 10° S 01:01:17 21° SE 01:02:14 19° ESE visible
19 Jan -0.7 02:34:28 10° WSW 02:35:11 15° WSW 02:35:11 15° WSW visible
20 Jan -3.5 01:46:29 10° WSW 01:49:25 66° SW 01:49:25 66° SW visible
21 Jan -3.5 00:58:38 10° SW 01:01:53 52° SE 01:03:34 25° E visible
21 Jan -0.8 02:35:35 10° W 02:36:31 17° W 02:36:31 17° W visible
22 Jan -3.2 01:47:26 10° W 01:50:36 49° NNW 01:50:36 49° NNW visible
23 Jan -3.6 00:59:19 10° WSW 01:02:38 69° NNW 01:04:37 22° NE visible
23 Jan -0.7 02:36:48 10° WNW 02:37:34 15° WNW 02:37:34 15° WNW visible
24 Jan -2.5 01:48:34 10° WNW 01:51:33 32° NNW 01:51:33 32° NNW visible
25 Jan -2.8 01:00:20 10° W 01:03:29 39° NNW 01:05:30 19° NE visible
25 Jan -0.7 02:37:50 10° WNW 02:38:26 14° NW 02:38:26 14° NW visible
26 Jan -2.3 01:49:40 10° WNW 01:52:21 28° N 01:52:21 28° N visible
27 Jan -2.5 01:01:26 10° WNW 01:04:25 29° N 01:06:16 18° NE visible
27 Jan -0.7 02:38:37 10° NW 02:39:12 14° NW 02:39:12 14° NW visible
